Location: Marion Hill
(40.7303°N, 80.2959°W)
Time: 18:45:05
(UTC+00:00)

Cosmos 2369 - Pass Details

Date: 29 October 2020
Orbit: 840 x 855 km, 71.0° (Epoch: 24 November)

Event Time Altitude Azimuth Distance (km) Brightness Sun altitude
Rises 23:30:13 0° 192° (SSW) 3,408 7.1 -13.7°
Reaches altitude 10° 23:32:41 10° 189° (S) 2,475 6.3 -14.2°
Maximum altitude 23:38:17 64° 109° (ESE) 941 3.7 -15.3°
Drops below altitude 10° 23:43:55 10° 30° (NNE) 2,483 5.8 -16.3°
Enters shadow 23:45:09 - 28° (NNE) 2,945 6.2 -16.6°
